TimeCDT,TemperatureF,Dew PointF,Humidity,Sea Level PressureIn,VisibilityMPH,Wind Direction,Wind SpeedMPH,Gust SpeedMPH,PrecipitationIn,Events,Conditions,WindDirDegrees,DateUTC
12:53 AM,51.1,48.0,89,30.14,10.0,Calm,Calm,-,N/A,,Clear,0,2012-10-09 05:53:00
1:53 AM,50.0,46.9,89,30.13,10.0,Calm,Calm,-,N/A,,Clear,0,2012-10-09 06:53:00
3:53 AM,46.9,45.0,93,30.12,10.0,Calm,Calm,-,N/A,,Clear,0,2012-10-09 08:53:00
4:53 AM,46.9,45.0,93,30.13,9.0,Calm,Calm,-,N/A,,Clear,0,2012-10-09 09:53:00
5:53 AM,45.0,43.0,93,30.14,10.0,Calm,Calm,-,N/A,,Clear,0,2012-10-09 10:53:00
6:53 AM,45.0,42.1,90,30.15,10.0,NW,3.5,-,N/A,,Clear,310,2012-10-09 11:53:00
7:53 AM,48.9,46.0,90,30.16,10.0,Calm,Calm,-,N/A,,Clear,0,2012-10-09 12:53:00
8:53 AM,55.0,48.0,77,30.17,10.0,Calm,Calm,-,N/A,,Clear,0,2012-10-09 13:53:00
9:53 AM,61.0,51.1,70,30.18,10.0,Calm,Calm,-,N/A,,Clear,0,2012-10-09 14:53:00
10:53 AM,64.9,48.9,56,30.17,10.0,NNW,4.6,-,N/A,,Clear,330,2012-10-09 15:53:00
11:53 AM,66.9,51.1,57,30.15,10.0,WSW,4.6,-,N/A,,Clear,240,2012-10-09 16:53:00
12:53 PM,70.0,50.0,49,30.12,10.0,ENE,4.6,-,N/A,,Clear,70,2012-10-09 17:53:00
1:53 PM,72.0,51.1,48,30.09,10.0,West,5.8,-,N/A,,Clear,280,2012-10-09 18:53:00
2:53 PM,73.0,50.0,44,30.07,10.0,Variable,3.5,-,N/A,,Clear,0,2012-10-09 19:53:00
3:53 PM,73.0,51.1,46,30.05,10.0,NE,3.5,-,N/A,,Clear,40,2012-10-09 20:53:00
4:53 PM,75.0,51.1,43,30.04,10.0,NNE,4.6,-,N/A,,Clear,20,2012-10-09 21:53:00
5:53 PM,73.0,52.0,48,30.04,10.0,ENE,3.5,-,N/A,,Clear,70,2012-10-09 22:53:00
6:53 PM,64.9,57.0,75,30.05,10.0,Calm,Calm,-,N/A,,Clear,0,2012-10-09 23:53:00
7:53 PM,61.0,57.0,87,30.05,10.0,Calm,Calm,-,N/A,,Clear,0,2012-10-10 00:53:00
8:53 PM,57.9,55.0,90,30.06,10.0,Calm,Calm,-,N/A,,Clear,0,2012-10-10 01:53:00
9:53 PM,57.0,54.0,89,30.08,10.0,Calm,Calm,-,N/A,,Clear,0,2012-10-10 02:53:00
10:53 PM,55.9,53.1,90,30.08,10.0,Calm,Calm,-,N/A,,Clear,0,2012-10-10 03:53:00
11:53 PM,55.0,51.1,86,30.09,10.0,Calm,Calm,-,N/A,,Clear,0,2012-10-10 04:53:00